This demonstration page uses our WeatherBlox Daily Observations layout. Learn more.

Hourly Observations for May 19, 2016

Temp ( °F °C ) Dew Point ( °F °C ) Humidity (%) Winds ( mph kmh ) Pressure ( in mb ) Visibility ( mi km ) Precip ( " mm )
12:15 am 00:15 Cloudy 55 13 50 10 82 82 NNW 5 7 30.12 1020 10 16.0934 0 0
12:35 am 00:35 Cloudy 55 13 52 11 88 88 Calm 30.12 1020 10 16.0934 0 0
12:55 am 00:55 Cloudy 55 13 50 10 82 82 N 3 6 30.12 1020 10 16.0934 0 0
1:15 am 01:15 Cloudy 55 13 52 11 88 88 Calm 30.12 1020 10 16.0934 0 0
1:35 am 01:35 Cloudy 55 13 52 11 88 88 Calm 30.12 1020 10 16.0934 0 0
1:55 am 01:55 Cloudy 55 13 52 11 88 88 NW 5 7 30.12 1020 10 16.0934 0 0
2:15 am 02:15 Cloudy 54 12 52 11 94 94 WNW 3 6 30.12 1020 10 16.0934 0 0
2:35 am 02:35 Cloudy 54 12 52 11 94 94 NW 5 7 30.12 1020 10 16.0934 0 0
2:55 am 02:55 Cloudy 55 13 50 10 82 82 NNW 3 6 30.12 1020 10 16.0934 0 0
3:15 am 03:15 Cloudy 55 13 50 10 82 82 Calm 30.12 1020 10 16.0934 0 0
3:35 am 03:35 Cloudy 55 13 50 10 82 82 Calm 30.12 1020 10 16.0934 0 0
3:55 am 03:55 Cloudy 55 13 50 10 82 82 Calm 30.12 1020 10 16.0934 0 0
4:15 am 04:15 Cloudy 54 12 52 11 94 94 WNW 5 7 30.12 1020 10 16.0934 0 0
4:35 am 04:35 Cloudy 54 12 50 10 88 88 NW 3 6 30.12 1020 10 16.0934 0 0
4:55 am 04:55 Cloudy 54 12 52 11 94 94 W 3 6 30.12 1020 10 16.0934 0 0
5:15 am 05:15 Cloudy 54 12 52 11 94 94 WNW 5 7 30.12 1020 10 16.0934 0 0
5:35 am 05:35 Cloudy 54 12 52 11 94 94 NW 5 7 30.12 1020 10 16.0934 0 0
5:55 am 05:55 Cloudy 55 13 50 10 82 82 NNW 5 7 30.12 1020 10 16.0934 0 0
6:15 am 06:15 Cloudy 55 13 50 10 82 82 NNW 3 6 30.12 1020 10 16.0934 0 0
6:35 am 06:35 Cloudy 55 13 50 10 82 82 N 8 13 30.12 1020 10 16.0934 0 0
6:55 am 06:55 Cloudy 55 13 50 10 82 82 N 6 9 30.12 1020 10 16.0934 0 0
7:15 am 07:15 Cloudy 55 13 50 10 82 82 NNW 3 6 30.15 1021 10 16.0934 0 0
7:35 am 07:35 Cloudy 55 13 50 10 82 82 N 5 7 30.15 1021 10 16.0934 0 0
7:55 am 07:55 Cloudy 55 13 50 10 82 82 N 7 11 30.15 1021 10 16.0934 0 0
8:15 am 08:15 Cloudy 57 14 50 10 77 77 N 5 7 30.15 1021 10 16.0934 0 0
8:35 am 08:35 Cloudy 57 14 50 10 77 77 N 7 11 30.15 1021 10 16.0934 0 0
8:55 am 08:55 Cloudy 59 15 50 10 72 72 NNW 6 9 30.15 1021 10 16.0934 0 0
9:15 am 09:15 Cloudy 59 15 50 10 72 72 N 3 6 30.15 1021 10 16.0934 0 0
9:35 am 09:35 Cloudy 59 15 48 9 68 68 N 7 11 30.15 1021 10 16.0934 0 0
9:55 am 09:55 Cloudy 59 15 50 10 72 72 NNW 6 9 30.18 1022 10 16.0934 0 0
10:15 am 10:15 Cloudy 61 16 50 10 68 68 NNW 6 9 30.18 1022 10 16.0934 0 0
10:35 am 10:35 Cloudy 61 16 50 10 68 68 NNW 3 6 30.18 1022 10 16.0934 0 0
10:55 am 10:55 Cloudy 61 16 50 10 68 68 Calm 30.18 1022 10 16.0934 0 0
11:15 am 11:15 Cloudy 63 17 50 10 64 64 WNW 5 7 30.18 1022 10 16.0934 0 0
11:35 am 11:35 Cloudy 63 17 50 10 64 64 Calm 30.18 1022 10 16.0934 0 0
11:55 am 11:55 Cloudy 64 18 50 10 60 60 WNW 5 7 30.18 1022 10 16.0934 0 0
12:15 pm 12:15 Cloudy 66 19 50 10 56 56 N 3 6 30.18 1022 10 16.0934 0 0
12:35 pm 12:35 Cloudy 66 19 50 10 56 56 S 5 7 30.15 1021 10 16.0934 0 0
12:55 pm 12:55 Mostly Cloudy 68 20 52 11 56 56 NNW 3 6 30.15 1021 10 16.0934 0 0
1:15 pm 13:15 Cloudy 70 21 52 11 53 53 NW 7 11 30.15 1021 10 16.0934 0 0
1:35 pm 13:35 Mostly Cloudy 68 20 50 10 53 53 Calm 30.15 1021 7 11.26538 0 0
1:55 pm 13:55 Partly Cloudy 70 21 50 10 50 50 NNE 3 6 30.15 1021 10 16.0934 0 0
2:15 pm 14:15 Partly Cloudy 70 21 50 10 50 50 Calm 30.15 1021 10 16.0934 0 0
2:35 pm 14:35 Partly Cloudy 68 20 48 9 49 49 Calm 30.15 1021 10 16.0934 0 0
2:55 pm 14:55 Partly Cloudy 72 22 50 10 47 47 NE 6 9 30.15 1021 10 16.0934 0 0
3:15 pm 15:15 Partly Cloudy 70 21 50 10 50 50 NNW 5 7 30.12 1020 10 16.0934 0 0
3:35 pm 15:35 Partly Cloudy 72 22 48 9 44 44 WNW 6 9 30.12 1020 10 16.0934 0 0
3:55 pm 15:55 Partly Cloudy 72 22 50 10 47 47 NW 3 6 30.12 1020 10 16.0934 0 0
4:15 pm 16:15 Mostly Cloudy 70 21 50 10 50 50 NW 3 6 30.12 1020 10 16.0934 0 0
4:35 pm 16:35 Partly Cloudy 72 22 46 8 41 41 Calm 30.12 1020 10 16.0934 0 0
4:55 pm 16:55 Partly Cloudy 70 21 46 8 43 43 Calm 30.12 1020 10 16.0934 0 0
5:15 pm 17:15 Partly Cloudy 73 23 48 9 41 41 Calm 30.12 1020 10 16.0934 0 0
5:35 pm 17:35 Partly Cloudy 73 23 50 10 44 44 Calm 30.12 1020 10 16.0934 0 0
5:55 pm 17:55 Partly Cloudy 73 23 46 8 38 38 Calm 30.12 1020 10 16.0934 0 0
6:15 pm 18:15 Partly Cloudy 72 22 46 8 41 41 Calm 30.12 1020 10 16.0934 0 0
6:35 pm 18:35 Sunny 72 22 46 8 41 41 S 3 6 30.12 1020 10 16.0934 0 0
6:55 pm 18:55 Sunny 72 22 50 10 47 47 Calm 30.12 1020 10 16.0934 0 0
7:15 pm 19:15 Sunny 72 22 50 10 47 47 SSW 3 6 30.12 1020 10 16.0934 0 0
7:35 pm 19:35 Sunny 72 22 50 10 47 47 SSW 3 6 30.15 1021 10 16.0934 0 0
7:55 pm 19:55 Sunny 70 21 50 10 50 50 SW 3 6 30.15 1021 10 16.0934 0 0
8:15 pm 20:15 Sunny 68 20 50 10 53 53 Calm 30.15 1021 10 16.0934 0 0
8:35 pm 20:35 Clear 63 17 50 10 64 64 SW 3 6 30.15 1021 10 16.0934 0 0
8:55 pm 20:55 Clear 63 17 52 11 68 68 Calm 30.15 1021 10 16.0934 0 0
9:15 pm 21:15 Clear 61 16 54 12 77 77 Calm 30.15 1021 10 16.0934 0 0
9:35 pm 21:35 Clear 59 15 54 12 82 82 Calm 30.15 1021 10 16.0934 0 0
9:55 pm 21:55 Clear 57 14 54 12 88 88 Calm 30.15 1021 10 16.0934 0 0
10:15 pm 22:15 Clear 55 13 54 12 94 94 Calm 30.18 1022 10 16.0934 0 0
10:35 pm 22:35 Clear 55 13 54 12 94 94 Calm 30.18 1022 10 16.0934 0 0
10:55 pm 22:55 Clear 55 13 52 11 88 88 Calm 30.18 1022 10 16.0934 0 0
11:15 pm 23:15 Clear 55 13 52 11 88 88 S 3 6 30.18 1022 10 16.0934 0 0
11:35 pm 23:35 Clear 55 13 52 11 88 88 S 3 6 30.21 1023 10 16.0934 0 0
11:55 pm 23:55 Clear 54 12 52 11 94 94 Calm 30.21 1023 10 16.0934 0 0

Powered by AerisWeather